TimeCDT,TemperatureF,Dew PointF,Humidity,Sea Level PressureIn,VisibilityMPH,Wind Direction,Wind SpeedMPH,Gust SpeedMPH,PrecipitationIn,Events,Conditions,WindDirDegrees,DateUTC
12:15 AM,60.8,46.4,59,29.85,10.0,NE,13.8,-,N/A,,Mostly Cloudy,40,2013-05-01 05:15:00
12:35 AM,60.8,46.4,59,29.87,10.0,NNE,13.8,-,N/A,,Mostly Cloudy,30,2013-05-01 05:35:00
12:55 AM,59.0,46.4,63,29.88,10.0,NNE,10.4,-,N/A,,Mostly Cloudy,20,2013-05-01 05:55:00
1:15 AM,59.0,44.6,59,29.89,10.0,NNE,12.7,-,N/A,,Overcast,30,2013-05-01 06:15:00
1:35 AM,59.0,44.6,59,29.90,10.0,NNE,13.8,-,N/A,,Overcast,30,2013-05-01 06:35:00
2:15 AM,59.0,44.6,59,29.92,10.0,NNE,19.6,23.0,N/A,,Overcast,30,2013-05-01 07:15:00
2:35 AM,59.0,44.6,59,29.92,10.0,NNE,19.6,-,N/A,,Overcast,20,2013-05-01 07:35:00
2:55 AM,57.2,42.8,59,29.94,10.0,NNE,16.1,23.0,N/A,,Overcast,20,2013-05-01 07:55:00
3:15 AM,57.2,42.8,59,29.94,10.0,NE,21.9,-,N/A,,Mostly Cloudy,40,2013-05-01 08:15:00
3:35 AM,55.4,42.8,63,29.95,10.0,NNE,19.6,32.2,N/A,,Mostly Cloudy,20,2013-05-01 08:35:00
3:55 AM,55.4,42.8,63,29.97,10.0,NNE,25.3,28.8,N/A,,Overcast,30,2013-05-01 08:55:00
4:15 AM,55.4,42.8,63,29.98,10.0,NNE,19.6,28.8,N/A,,Overcast,30,2013-05-01 09:15:00
4:35 AM,53.6,41.0,62,29.99,10.0,NNE,17.3,25.3,N/A,,Overcast,20,2013-05-01 09:35:00
4:55 AM,53.6,42.8,67,30.02,10.0,NNE,19.6,29.9,N/A,,Overcast,20,2013-05-01 09:55:00
5:15 AM,53.6,42.8,67,30.02,10.0,NNE,19.6,26.5,N/A,,Overcast,30,2013-05-01 10:15:00
5:35 AM,51.8,41.0,67,30.03,10.0,NNE,20.7,32.2,N/A,,Overcast,30,2013-05-01 10:35:00
5:55 AM,51.8,41.0,67,30.04,10.0,NE,21.9,31.1,N/A,,Overcast,40,2013-05-01 10:55:00
6:15 AM,51.8,39.2,62,30.05,10.0,NE,27.6,32.2,N/A,,Overcast,40,2013-05-01 11:15:00
6:35 AM,51.8,39.2,62,30.06,10.0,NNE,18.4,-,N/A,,Mostly Cloudy,30,2013-05-01 11:35:00
6:55 AM,51.8,39.2,62,30.06,10.0,NE,24.2,29.9,N/A,,Mostly Cloudy,40,2013-05-01 11:55:00
7:15 AM,51.8,37.4,58,30.07,10.0,NNE,20.7,31.1,N/A,,Mostly Cloudy,30,2013-05-01 12:15:00
7:35 AM,50.0,37.4,62,30.09,10.0,NE,25.3,34.5,N/A,,Scattered Clouds,40,2013-05-01 12:35:00
7:55 AM,51.8,37.4,58,30.10,10.0,NNE,26.5,33.4,N/A,,Scattered Clouds,30,2013-05-01 12:55:00
8:15 AM,51.8,37.4,58,30.09,10.0,NE,27.6,34.5,N/A,,Scattered Clouds,40,2013-05-01 13:15:00
8:35 AM,51.8,37.4,58,30.11,10.0,NE,27.6,33.4,N/A,,Scattered Clouds,40,2013-05-01 13:35:00
8:55 AM,51.8,37.4,58,30.11,10.0,NNE,25.3,33.4,N/A,,Mostly Cloudy,30,2013-05-01 13:55:00
9:15 AM,53.6,37.4,54,30.12,10.0,NE,23.0,-,N/A,,Overcast,40,2013-05-01 14:15:00
9:35 AM,53.6,37.4,54,30.12,10.0,NE,28.8,35.7,N/A,,Mostly Cloudy,40,2013-05-01 14:35:00
10:15 AM,51.8,37.4,58,30.14,10.0,NNE,25.3,34.5,N/A,,Mostly Cloudy,20,2013-05-01 15:15:00
10:35 AM,51.8,37.4,58,30.16,10.0,NNE,20.7,29.9,N/A,,Overcast,20,2013-05-01 15:35:00
10:55 AM,48.2,37.4,66,30.17,10.0,NNE,28.8,32.2,N/A,,Overcast,20,2013-05-01 15:55:00
11:15 AM,46.4,37.4,71,30.17,10.0,NNE,29.9,35.7,N/A,,Overcast,30,2013-05-01 16:15:00
11:35 AM,46.4,35.6,66,30.18,10.0,NNE,20.7,34.5,N/A,,Overcast,20,2013-05-01 16:35:00
11:55 AM,46.4,35.6,66,30.19,10.0,NNE,23.0,32.2,N/A,,Overcast,20,2013-05-01 16:55:00
12:15 PM,46.4,35.6,66,30.20,10.0,NNE,23.0,29.9,N/A,,Overcast,30,2013-05-01 17:15:00
12:35 PM,46.4,35.6,66,30.18,10.0,NNE,28.8,34.5,N/A,,Overcast,30,2013-05-01 17:35:00
1:15 PM,46.4,35.6,66,30.19,10.0,NNE,26.5,32.2,N/A,,Overcast,30,2013-05-01 18:15:00
1:35 PM,46.4,35.6,66,30.20,10.0,NNE,19.6,32.2,N/A,,Overcast,20,2013-05-01 18:35:00
1:55 PM,46.4,35.6,66,30.20,10.0,NNE,25.3,29.9,N/A,,Overcast,20,2013-05-01 18:55:00
2:15 PM,46.4,35.6,66,30.21,10.0,NNE,23.0,31.1,N/A,,Overcast,20,2013-05-01 19:15:00
2:35 PM,46.4,35.6,66,30.23,10.0,North,20.7,35.7,N/A,,Overcast,10,2013-05-01 19:35:00
2:55 PM,44.6,35.6,71,30.23,10.0,NNE,21.9,28.8,N/A,,Overcast,20,2013-05-01 19:55:00
3:15 PM,44.6,35.6,71,30.24,7.0,NNE,23.0,32.2,N/A,,Overcast,20,2013-05-01 20:15:00
3:35 PM,44.6,35.6,71,30.25,10.0,NNE,21.9,35.7,N/A,,Overcast,20,2013-05-01 20:35:00
4:15 PM,42.8,33.8,70,30.24,10.0,NNE,26.5,40.3,N/A,,Overcast,20,2013-05-01 21:15:00
4:35 PM,42.8,33.8,70,30.23,10.0,NNE,26.5,38.0,N/A,,Overcast,30,2013-05-01 21:35:00
5:15 PM,42.8,33.8,70,30.25,10.0,NNE,23.0,34.5,N/A,,Overcast,20,2013-05-01 22:15:00
5:35 PM,41.0,33.8,76,30.27,10.0,North,26.5,35.7,N/A,,Drizzle,10,2013-05-01 22:35:00
5:55 PM,39.2,33.8,81,30.28,7.0,NNE,27.6,34.5,N/A,Rain,Rain,20,2013-05-01 22:55:00
6:15 PM,37.4,33.8,87,30.28,2.0,NNE,25.3,36.8,N/A,Rain,Light Rain,20,2013-05-01 23:15:00
6:35 PM,37.4,33.8,87,30.29,2.5,North,19.6,33.4,N/A,Rain,Light Rain,10,2013-05-01 23:35:00
6:55 PM,37.4,32.0,81,30.28,2.5,NNE,25.3,29.9,N/A,Rain,Light Rain,20,2013-05-01 23:55:00
7:15 PM,37.4,32.0,81,30.30,5.0,North,17.3,35.7,N/A,Rain,Rain,10,2013-05-02 00:15:00
7:35 PM,37.4,32.0,81,30.28,7.0,NNE,24.2,33.4,N/A,Rain,Light Rain,20,2013-05-02 00:35:00
7:55 PM,35.6,32.0,87,30.28,10.0,NNE,28.8,34.5,N/A,,Light Drizzle,30,2013-05-02 00:55:00
8:35 PM,35.6,30.2,81,30.32,10.0,North,21.9,28.8,N/A,Rain,Light Rain,10,2013-05-02 01:35:00
8:55 PM,35.6,30.2,81,30.32,3.0,NNE,20.7,35.7,0.02,,Drizzle,20,2013-05-02 01:55:00
9:35 PM,35.6,32.0,87,30.33,4.0,NNE,23.0,31.1,0.04,Rain,Light Rain,30,2013-05-02 02:35:00
9:55 PM,37.4,32.0,81,30.33,10.0,NNE,21.9,36.8,0.04,Rain,Light Rain,20,2013-05-02 02:55:00
10:15 PM,37.4,33.8,87,30.33,4.0,NNE,24.2,33.4,0.02,Rain,Light Rain,20,2013-05-02 03:15:00
10:35 PM,35.6,32.0,87,30.35,4.0,North,19.6,28.8,0.04,Rain,Rain,10,2013-05-02 03:35:00
10:55 PM,35.6,32.0,87,30.32,5.0,NNE,21.9,32.2,0.06,Rain,Light Rain,20,2013-05-02 03:55:00
11:15 PM,35.6,32.0,87,30.34,10.0,NNE,21.9,27.6,N/A,Rain,Light Rain,20,2013-05-02 04:15:00
11:35 PM,35.6,32.0,87,30.35,3.0,North,26.5,32.2,0.07,Snow,Light Snow,10,2013-05-02 04:35:00
11:55 PM,35.6,32.0,87,30.38,5.0,North,18.4,26.5,0.10,Rain,Rain,10,2013-05-02 04:55:00